Terminal Aerodrome Forecast
Issued by NWS Chicago, IL

Home | Current Version | Previous Version | Text Only | Print | Product List | Glossary Off
Versions: 1 2 3 4 5 6 7 8 9 10 11 12 13 14 15 16 17 18 19 20 21 22 23 24 25 26 27 28 29 30 31 32 33 34 35 36 37

000
FTUS43 KLOT 251825 AAA
TAFRFD
TAF AMD
KRFD 251825Z 2518/2618 23012G19KT 5SM BR OVC009
     FM251930 25013G20KT P6SM OVC012
     FM252100 27013KT P6SM BKN020 BKN080
     FM260000 29008KT P6SM BKN060
     FM260800 32012KT P6SM SCT040 BKN100
     FM261500 33012KT P6SM BKN025=

USA.gov is the U.S. government's official web portal to all federal, state and local government web resources and services.